Showing default

PHISAT 2, 60470

Orbit data source: Space-Track

PHISAT 2, 60470 is a UK payload satellite in SSO that was launched on Fri, 16 Aug 2024 UTC via an FALCON 9 launch vehicle from the Air Force Western Test Range (AFWTR). Payload-class satellites include a variety of spacecraft equipped with specific instruments for various scientific and technological missions. These include communications satellites like Starlink; space stations such as the ISS; scientific satellites like the Hubble; Earth observation satellites from companies like Planet Labs, Umbra, and HawkEye 360; GPS; miniature CubeSats for education and research; and military/defense satellites.

Loading next visibility...
Identifier
60470, 2024-149C
Orbit
SSO
Country
Flag of UKUK
Related business
Manufacturer
Open Cosmos
Mission
Operational Civil Technology
Bus & Motor
CUBESAT 6U, Unknown motor
Mass
9 kg wet, 9 kg dry
Launch date (UTC)
2024-08-16 (2 years ago)
Launch vehicle
FALCON 9
Launch site
Air Force Western Test Range (AFWTR)
Object type
Payload
Rocket body
Debris
Shape & HBR
Box + 2 Pan, 1.0 m
Radar Cross Section
0.143 m², Medium (>0.1 m² and < 1m²)

Expand to show TLE details & history
Last TLE update: 14 hours ago

TLE from 14 hours ago
0 PHISAT 2
1 60470U 24149C   26264.80229860  .00004394  00000-0  14387-3 0  9998
2 60470  97.3694 343.5235 0000498 175.7735 184.3511 15.32198239116787
Epoch: 2026-09-21T19:15Z
TLE epoch observation values (Epoch: 2026-09-21T19:15:18.599Z)
Latitude
-0.00001°
Longitude
54.0191°
Altitude
472.703 km
Speed
7.629 km/s
True Right ascension
22h 54m 05s
True Declination
0° 00' 00"
Sunlit
Object was in full shadow at epoch
Visualization orbit readout
Latitude
Unknown
Longitude
Unknown
Altitude
Unknown
Speed
Unknown
Apparent Right ascension
Unknown
Apparent Declination
Unknown
Sunlit
N/A
Visualization observer readout
Local Sidereal Time
02:01:13
Azimuth
Unknown
Elevation
Unknown
Doppler factor
Unknown
Orbital elements
Apogee altitude
466.544 km
Perigee altitude
465.862 km
Semi-major axis
6,844.34 km
Eccentricity
0.00005
Inclination
97.3694°
RAAN
343.5235°
Arg. of periapsis
175.7735°
True anomaly
184.35067°
Mean anomaly
184.3511°
Eccentric anomaly
184.35088°
Mean motion
3.83306 °/min
Orbital period
93.92 mins
BSTAR
0.00014387
Loading maneuver chart data...
Computing Atmospheric mass density...

Documentation

Showing up to 5 results
|